Regional Weather Roundup
Issued by NWS State College, PA

Home | Current Version | Previous Version | Text Only | Print | Product List | Glossary On
Versions: 1 2 3 4 5 6 7 8 9 10 11 12 13 14 15 16 17 18 19 20 21 22 23 24 25 26 27 28 29 30 31 32 33 34 35 36 37 38 39 40 41 42 43 44 45 46 47 48 49 50
000
ASUS41 KCTP 260210
RWRCTP

REGIONAL WEATHER ROUNDUP
NATIONAL WEATHER SERVICE STATE COLLEGE PA
1000 PM EDT THU MAY 25 2017

Note: "fair" indicates few or no clouds below 12,000 feet with no
significant weather and/or obstructions to visibility.

* = STATION THAT DOES NOT REPORT PRECIPITATION /E.G. RAIN...SNOW...ETC/
    THUNDER OR FOG.

PAZ002>004-007>009-013>016-020>023-029>032-260300-
WESTERN PENNSYLVANIA

CITY           SKY/WX    TMP DP  RH WIND       PRES   REMARKS
ERIE           LGT RAIN  56  55  97 NW5       29.54R
MEADVILLE      PTCLDY    56  55  97 W3        29.55R
FRANKLIN*      CLOUDY    57  54  88 W5        29.55S
NEW CASTLE     CLOUDY    59  55  87 CALM      29.56R
BEAVER COUNTY  NOT AVBL
BUTLER*        CLOUDY    57  54  88 SW3       29.56R
PITTSBURGH INT CLOUDY    58  57  97 SW6       29.56R
PITTSBURGH     CLOUDY    58  54  86 W7        29.56R
INDIANA*       CLOUDY    59  57  94 W5        29.59R
LATROBE        CLOUDY    59  55  88 W7        29.57R
WASHINGTON CO* CLOUDY    55  54  94 CALM      29.60R
$$

PAZ004>006-010>012-017>019-024>028-033>037-041-042-045-046-049>053-260300-
CENTRAL PENNSYLVANIA

CITY           SKY/WX    TMP DP  RH WIND       PRES   REMARKS
BRADFORD       CLOUDY    54  54 100 CALM      29.53R
DUBOIS         MOCLDY    54  50  86 W5        29.54R
CLEARFIELD     CLOUDY    58  58 100 W9        29.54R
JOHNSTOWN      CLOUDY    56  53  90 W9        29.56R
ALTOONA        HVY RAIN  57  56  96 N5        29.55R FOG
STATE COLLEGE  NOT AVBL
WILLIAMSPORT   MOCLDY    58  57  97 SW5       29.48S
SELINSGROVE    CLOUDY    60  59  96 W3        29.49S
FT INDIANTOWN  CLOUDY    60  60 100 CALM      29.49R
CAPITAL CITY   CLOUDY    64  57  78 NE5       29.48S
HARRISBURG     CLOUDY    63  60  90 NE3       29.47S
YORK           CLOUDY    62  59  90 E7        29.47F
$$

PAZ038>040-043-044-047-048-054-055-060>062-067>071-260300-
EASTERN PENNSYLVANIA

CITY           SKY/WX    TMP DP  RH WIND       PRES   REMARKS
SCRANTON       LGT RAIN  60  58  92 NE8       29.50F
MOUNT POCONO   LGT RAIN  54  54 100 NE9G17    29.50F
ALLENTOWN      CLOUDY    60  57  89 N5        29.49R
QUAKERTOWN*    CLOUDY    57  57 100 N3        29.49S
READING        CLOUDY    62  61  96 NE5       29.47F
LANCASTER      LGT RAIN  63  62  97 E5        29.47F
COATESVILLE    RAIN      57  55  94 N6        29.50F
POTTSTOWN      LGT RAIN  59  58  96 S3        29.52R
BLUE BELL      CLOUDY    55  54  94 W6G17     29.52R
DOYLESTOWN     CLOUDY    57  57 100 N3        29.47R
WILLOW GROVE   NOT AVBL
NORTH PHILA    CLOUDY    61  58  90 SW15G21   29.52R
PHILADELPHIA   TSTM      59  56  89 NW9       29.50R FOG
$$




USA.gov is the U.S. government's official web portal to all federal, state and local government web resources and services.